Weather History for EGXG - December, 2012

Change the Weather History Date:

Monday, December 17, 2012

  Actual Average Record
Temperature  
Mean Temperature 39 °F -  
Max Temperature 45 °F - - ()
Min Temperature 33 °F - - ()
Degree Days  
Heating Degree Days 26    
Moisture  
Dew Point 39 °F    
Average Humidity 94    
Maximum Humidity 100    
Minimum Humidity 83    
Precipitation  
Precipitation 0.01 in - - ()
Sea Level Pressure  
Sea Level Pressure 29.45 in    
Wind  
Wind Speed 5 mph ()    
Max Wind Speed 9 mph    
Max Gust Speed -    
Visibility 5.6 miles    
Events Fog , Rain    
T = Trace of Precipitation, MM = Missing Value Source: Averaged Metar Reports

Daily Weather History Graph

Daily Weather History Graph

Search for Another Location

Airport or City:

Trip Planner

Search our weather history database for the weather conditions in past years. The results will help you decide how hot, cold, wet, or windy it might be!

Date:

Astronomy

Dec. 17, 2012 Rise Set
Actual Time 8:18 AM GMT 3:43 PM GMT
Civil Twilight 7:34 AM GMT 4:27 PM GMT
Nautical Twilight 6:48 AM GMT 5:13 PM GMT
Astronomical Twilight 6:05 AM GMT 5:56 PM GMT
Moon 10:42 AM GMT (12/17) 9:29 PM GMT (12/17)
Length of Visible Light 8h 52m
Length of Day
7h 25m
Waxing Crescent, 23% of the Moon is Illuminated
Dec 17
Waxing Crescent
Dec 20
First Quarter
Dec 28
Full
Jan 5
Last Quarter
Jan 11
New

Hourly Weather History & Observations

Time (GMT) Temp. Windchill Dew Point Humidity Pressure Visibility Wind Dir Wind Speed Gust Speed Precip Events Conditions
12:50 AM 39.2 °F 35.0 °F 39.2 °F 100% 29.36 in 3.7 mi South 5.8 mph - N/A   Mostly Cloudy
1:50 AM 39.2 °F 34.2 °F 39.2 °F 100% 29.36 in 3.1 mi South 6.9 mph - N/A   Mostly Cloudy
2:50 AM 35 °F - 35 °F 100% 29.37 in 1 mi SSE 5.8 mph - -   Mist
2:50 AM 35.6 °F 30.7 °F 35.6 °F 100% 29.36 in 0.8 mi SSE 5.8 mph - N/A   Partly Cloudy
3:50 AM 35.6 °F 32.8 °F 35.6 °F 100% 29.36 in 0.2 mi SSE 3.5 mph - N/A Fog Fog
4:50 AM 33.8 °F - 33.8 °F 100% 29.36 in 0.2 mi SE 2.3 mph - N/A Fog Fog
5:50 AM 36 °F - 36 °F 99% 29.39 in 1 mi East 1.2 mph - - Rain Rain Showers
6:50 AM 37.4 °F 33.8 °F 37.4 °F 100% 29.39 in 1.9 mi South 4.6 mph - N/A   Mostly Cloudy
8:50 AM 38 °F - 38 °F 100% 29.43 in 2 mi South 4.6 mph - -   Unknown Precipitation
9:50 AM 39.2 °F 35.9 °F 39.2 °F 100% 29.44 in - South 4.6 mph - N/A   Scattered Clouds
10:50 AM 42.8 °F 38.0 °F 42.8 °F 100% 29.44 in 6.2 mi SSW 8.1 mph - N/A   Scattered Clouds
11:50 AM 45 °F - 42 °F 83% 29.46 in 12 mi SW 9.2 mph - - Rain Light Rain Showers
11:50 AM 44.6 °F 39.7 °F 41.0 °F 87% 29.44 in 6.2 mi SW 9.2 mph - N/A Rain Light Rain Showers
12:50 PM 44.6 °F 41.4 °F 41.0 °F 87% 29.44 in 6.2 mi SSW 5.8 mph - N/A   Mostly Cloudy
2:50 PM 44 °F - 41 °F 86% 29.48 in 14 mi SSE 5.8 mph - -   Mostly Cloudy
3:50 PM 44.6 °F 41.4 °F 41.0 °F 87% 29.47 in 6.2 mi SSE 5.8 mph - N/A   Mostly Cloudy
4:50 PM 42.8 °F 38.6 °F 41.0 °F 93% 29.50 in 6.2 mi South 6.9 mph - N/A   Mostly Cloudy
5:50 PM 44 °F - 41 °F 85% 29.51 in 14 mi SW 8.1 mph - -   Mostly Cloudy
5:50 PM 44.6 °F 40.2 °F 41.0 °F 87% 29.50 in 6.2 mi SW 8.1 mph - N/A   Mostly Cloudy
6:50 PM 42.8 °F 38.0 °F 41.0 °F 93% 29.53 in 6.2 mi WSW 8.1 mph - N/A Rain Light Rain Showers
7:50 PM 41.0 °F 35.8 °F 39.2 °F 93% 29.53 in 6.2 mi WSW 8.1 mph - N/A Rain Rain
8:50 PM 41 °F - 40 °F 92% 29.58 in 13 mi WSW 3.5 mph - - Rain Light Rain
8:50 PM 41.0 °F 39.0 °F 39.2 °F 93% 29.56 in 6.2 mi WSW 3.5 mph - N/A Rain Light Rain